Location: Lussas
(44.6119°N, 4.4726°E)
Time: 19:31:06
(UTC+00:00)

Cosmos 1538 Rocket - Pass Details

Date: 26 November 2020
Orbit: 753 x 791 km, 74.0° (Epoch: 27 January)

Event Time Altitude Azimuth Distance (km) Brightness Sun altitude
Exits shadow 04:35:35 52° 328° (NNW) 972 4.2 -24.0°
Maximum altitude 04:36:55 80° 252° (WSW) 796 3.9 -23.8°
Drops below altitude 10° 04:42:10 10° 165° (SSE) 2,311 6.7 -22.8°
Sets 04:44:31 0° 164° (SSE) 3,228 7.5 -22.4°
